Location: Minneapolis
(44.9800°N, 93.2640°W)
Time: 11:10:07
(UTC-05:00)

Iridium 96 - Visible Passes

Search period start: 05 May 2016 00:00
Search period end: 15 May 2016 00:00
Orbit: 775 x 780 km, 86.4° (Epoch: 05 May)

Date Brightness Start Highest point End Pass type
(mag) Time Alt. Az. Time Alt. Az. Time Alt. Az.
07 May 8.4 05:08:28 10° NNE 05:12:10 19° ENE 05:15:50 10° ESE visible
08 May 9.0 04:36:59 10° NE 04:38:12 11° ENE 04:39:24 10° E visible
10 May 8.0 05:08:05 10° NNE 05:12:28 26° ENE 05:16:49 10° SE visible
11 May 8.5 04:35:33 10° NE 04:38:35 15° ENE 04:41:38 10° ESE visible
13 May 7.3 05:07:52 10° NNE 05:12:43 37° E 05:17:31 10° SSE visible
14 May 8.2 04:34:57 10° NNE 04:38:55 21° ENE 04:42:53 10° SE visible
